Zurück zum Katalog

CZ-4C DEB

AktivSSO
NORAD 43425·DEBRIS·🇨🇳 China

Gestartet Aug 27, 2015 von Taiyuan Satellite Launch Center

Loading…

Nächste Überflüge (nächste 24 Stunden)

TLE

AktuellSource: Space-Track

Epoche: Sep 14, 2026, 10:28 UTC

1 43425U 15040D   26257.43663709  .00000080  00000-0  28304-3 0  9996
2 43425 100.1731 327.2717 0141041 318.0414  40.9965 13.22622827532349

Verfolge CZ-4C DEB in Echtzeit mit AllMySat

Download on the App Store